Satellite-Ground Cal/Val Region Overpasses Predictions

Prediction of Satellite NPP Overpassing Cal/Val Region: PacNW

Region Location: (Latitude: 10.00, Longitude: 139.50) to (Latitude: 22.70, Longitude: 165.60).

Table of predicted overpasses for the next 14.0 days since TLE Epoch: 4/25/2015
Interval Starting Time Starting Location Ending Time Ending Location
1 04/25/2015 16:06:52 ( 22.66, 144.50) 04/25/2015 16:10:27 ( 10.03, 141.51)
2 04/26/2015 03:15:55 ( 10.03, 152.05) 04/26/2015 03:19:30 ( 22.66, 149.06)
3 04/26/2015 15:47:47 ( 22.70, 149.27) 04/26/2015 15:51:23 ( 10.01, 146.26)
4 04/27/2015 02:56:52 ( 10.05, 156.81) 04/27/2015 03:00:27 ( 22.68, 153.81)
5 04/27/2015 15:28:44 ( 22.68, 154.03) 04/27/2015 15:32:19 ( 10.05, 151.03)
6 04/28/2015 02:37:48 ( 10.02, 161.58) 04/28/2015 02:41:24 ( 22.70, 158.57)
7 04/28/2015 15:09:40 ( 22.65, 158.79) 04/28/2015 15:13:15 ( 10.03, 155.79)
8 04/29/2015 02:19:39 ( 13.27, 165.59) 04/29/2015 02:22:19 ( 22.66, 163.34)
9 04/29/2015 04:00:14 ( 10.05, 140.96) 04/29/2015 04:02:01 ( 16.34, 139.50)
10 04/29/2015 14:50:36 ( 22.69, 163.56) 04/29/2015 14:54:12 ( 10.01, 160.55)
11 04/30/2015 03:41:10 ( 10.02, 145.73) 04/30/2015 03:44:46 ( 22.70, 142.72)
12 04/30/2015 14:34:47 ( 11.22, 165.59) 04/30/2015 14:35:07 ( 10.04, 165.32)
13 04/30/2015 16:13:02 ( 22.65, 142.94) 04/30/2015 16:16:37 ( 10.03, 139.94)
14 05/01/2015 03:22:06 ( 10.04, 150.49) 05/01/2015 03:25:41 ( 22.66, 147.49)
15 05/01/2015 15:53:58 ( 22.68, 147.71) 05/01/2015 15:57:34 ( 10.00, 144.70)
16 05/02/2015 03:03:02 ( 10.01, 155.25) 05/02/2015 03:06:38 ( 22.69, 152.25)
17 05/02/2015 15:34:54 ( 22.66, 152.46) 05/02/2015 15:38:29 ( 10.03, 149.47)
18 05/03/2015 02:43:58 ( 10.04, 160.01) 05/03/2015 02:47:33 ( 22.66, 157.02)
19 05/03/2015 15:15:50 ( 22.69, 157.23) 05/03/2015 15:19:26 ( 10.01, 154.22)
20 05/04/2015 02:24:54 ( 10.01, 164.78) 05/04/2015 02:28:30 ( 22.69, 161.77)
21 05/04/2015 14:56:47 ( 22.66, 161.99) 05/04/2015 15:00:22 ( 10.03, 158.99)
22 05/05/2015 03:47:20 ( 10.05, 144.16) 05/05/2015 03:50:55 ( 22.68, 141.16)
23
